Powrót do katalogu

LONGJIANG 1

AktywnyNaukaHEO
NORAD 43471·PAYLOAD·🇨🇳 China

Wystrzelony May 20, 2018 z Xichang Satellite Launch Center

Loading…

Następne Przeloty (najbliższe 24 godziny)

TLE

NieaktualneSource: Space-Track

Epoka: May 20, 2018, 23:16 UTC

1 43471U 18045B   18140.97000001 -.00010094 +00000-0 +00000-0 0  9993
2 43471 027.5020 209.5210 9658153 171.2240 002.0960 00.09844104000018

Śledź LONGJIANG 1 w czasie rzeczywistym z AllMySat

Download on the App Store